Time,TemperatureF,DewpointF,PressureIn,WindDirection,WindDirectionDegrees,WindSpeedMPH,WindSpeedGustMPH,Humidity,HourlyPrecipIn,Conditions,Clouds,dailyrainin,SolarRadiationWatts/m^2,SoftwareType,DateUTC
2013-08-31 00:01:00,53.0,53.0,-100.00,WSW,257,0.0,0.0,99,0.00,,,0.51,0.000000,,2013-08-31 05:01:00,
2013-08-31 00:43:00,53.0,53.0,-100.00,WSW,257,0.0,0.0,99,0.00,,,0.51,0.000000,,2013-08-31 05:43:00,
2013-08-31 00:53:00,53.0,53.0,-100.00,WSW,257,0.0,0.0,99,0.00,,,0.51,0.000000,,2013-08-31 05:53:00,
2013-08-31 01:01:00,52.0,52.0,-100.00,NW,314,1.0,2.0,99,0.00,,,0.51,0.000000,,2013-08-31 06:01:00,
2013-08-31 01:42:00,52.0,52.0,-100.00,NW,314,1.0,2.0,99,0.00,,,0.51,0.000000,,2013-08-31 06:42:00,
2013-08-31 01:52:00,52.0,52.0,-100.00,NW,314,1.0,2.0,99,0.00,,,0.51,0.000000,,2013-08-31 06:52:00,
2013-08-31 02:01:00,52.0,52.0,-100.00,NNE,15,0.0,4.0,99,0.00,,,0.24,0.000000,,2013-08-31 07:01:00,
2013-08-31 02:42:00,52.0,52.0,-100.00,NNE,15,0.0,4.0,99,0.00,,,0.24,0.000000,,2013-08-31 07:42:00,
2013-08-31 02:52:00,52.0,52.0,-100.00,NNE,15,0.0,4.0,99,0.00,,,0.24,0.000000,,2013-08-31 07:52:00,
2013-08-31 03:01:00,53.0,53.0,-100.00,SW,218,0.0,0.0,99,0.00,,,0.01,0.000000,,2013-08-31 08:01:00,
2013-08-31 03:22:00,53.0,53.0,-100.00,SW,218,0.0,0.0,99,0.00,,,0.01,0.000000,,2013-08-31 08:22:00,
2013-08-31 03:32:00,53.0,53.0,-100.00,SW,218,0.0,0.0,99,0.00,,,0.01,0.000000,,2013-08-31 08:32:00,
2013-08-31 03:42:00,53.0,53.0,-100.00,SW,218,0.0,0.0,99,0.00,,,0.01,0.000000,,2013-08-31 08:42:00,
2013-08-31 03:52:00,53.0,53.0,-100.00,SW,218,0.0,0.0,99,0.00,,,0.01,0.000000,,2013-08-31 08:52:00,
2013-08-31 04:01:00,54.0,54.0,-100.00,WNW,283,0.0,2.0,100,0.00,,,0.01,0.000000,,2013-08-31 09:01:00,
2013-08-31 04:23:00,54.0,54.0,-100.00,WNW,283,0.0,2.0,100,0.00,,,0.01,0.000000,,2013-08-31 09:23:00,
2013-08-31 04:33:00,54.0,54.0,-100.00,WNW,283,0.0,2.0,100,0.00,,,0.01,0.000000,,2013-08-31 09:33:00,
2013-08-31 04:44:00,54.0,54.0,-100.00,WNW,283,0.0,2.0,100,0.00,,,0.01,0.000000,,2013-08-31 09:44:00,
2013-08-31 04:53:00,54.0,54.0,-100.00,WNW,283,0.0,2.0,100,0.00,,,0.01,0.000000,,2013-08-31 09:53:00,
2013-08-31 05:01:00,53.0,53.0,-100.00,West,269,0.0,2.0,100,0.00,,,0.01,0.000000,,2013-08-31 10:01:00,
2013-08-31 05:23:00,53.0,53.0,-100.00,West,269,0.0,2.0,100,0.00,,,0.01,0.000000,,2013-08-31 10:23:00,
2013-08-31 05:33:00,53.0,53.0,-100.00,West,269,0.0,2.0,100,0.00,,,0.01,0.000000,,2013-08-31 10:33:00,
2013-08-31 05:43:00,53.0,53.0,-100.00,West,269,0.0,2.0,100,0.00,,,0.01,0.000000,,2013-08-31 10:43:00,
2013-08-31 05:53:00,53.0,53.0,-100.00,West,269,0.0,2.0,100,0.00,,,0.01,0.000000,,2013-08-31 10:53:00,
2013-08-31 06:01:00,51.0,51.0,-100.00,NNE,15,0.0,3.0,100,0.00,,,-99.99,0.000000,,2013-08-31 11:01:00,
2013-08-31 06:42:00,51.0,51.0,-100.00,NNE,15,0.0,3.0,100,0.00,,,-99.99,0.000000,,2013-08-31 11:42:00,
2013-08-31 06:52:00,51.0,51.0,-100.00,NNE,15,0.0,3.0,100,0.00,,,-99.99,0.000000,,2013-08-31 11:52:00,
2013-08-31 07:01:00,52.0,52.0,-100.00,West,278,0.0,0.0,99,0.00,,,0.01,12.000000,,2013-08-31 12:01:00,
2013-08-31 07:42:00,52.0,52.0,-100.00,West,278,0.0,0.0,99,0.00,,,0.01,12.000000,,2013-08-31 12:42:00,
2013-08-31 07:52:00,52.0,52.0,-100.00,West,278,0.0,0.0,99,0.00,,,0.01,12.000000,,2013-08-31 12:52:00,
2013-08-31 08:01:00,58.0,58.0,-100.00,WSW,244,3.0,5.0,99,0.00,,,0.01,96.000000,,2013-08-31 13:01:00,
2013-08-31 08:42:00,58.0,58.0,-100.00,WSW,244,3.0,5.0,99,0.00,,,0.01,96.000000,,2013-08-31 13:42:00,
2013-08-31 08:52:00,58.0,58.0,-100.00,WSW,244,3.0,5.0,99,0.00,,,0.01,96.000000,,2013-08-31 13:52:00,
2013-08-31 09:01:00,63.0,62.0,-100.00,WSW,237,4.0,7.0,95,0.00,,,0.01,327.000000,,2013-08-31 14:01:00,
2013-08-31 09:42:00,63.0,62.0,-100.00,WSW,237,4.0,7.0,95,0.00,,,0.01,327.000000,,2013-08-31 14:42:00,
2013-08-31 09:52:00,63.0,62.0,-100.00,WSW,237,4.0,7.0,95,0.00,,,0.01,327.000000,,2013-08-31 14:52:00,
2013-08-31 10:01:00,70.0,63.0,-100.00,SW,222,5.0,8.0,78,0.00,,,0.01,531.000000,,2013-08-31 15:01:00,
2013-08-31 10:45:00,70.0,63.0,-100.00,SW,222,5.0,8.0,78,0.00,,,0.01,531.000000,,2013-08-31 15:45:00,
2013-08-31 10:55:00,70.0,63.0,-100.00,SW,222,5.0,8.0,78,0.00,,,0.01,531.000000,,2013-08-31 15:55:00,
2013-08-31 11:01:00,72.0,63.0,-100.00,WSW,252,5.0,10.0,74,0.00,,,0.00,519.000000,,2013-08-31 16:01:00,
2013-08-31 11:25:00,72.0,63.0,-100.00,WSW,252,5.0,10.0,74,0.00,,,0.00,519.000000,,2013-08-31 16:25:00,
2013-08-31 11:34:00,72.0,63.0,-100.00,WSW,252,5.0,10.0,74,0.00,,,0.00,519.000000,,2013-08-31 16:34:00,
2013-08-31 11:44:00,72.0,63.0,-100.00,WSW,252,5.0,10.0,74,0.00,,,0.00,519.000000,,2013-08-31 16:44:00,
2013-08-31 11:52:00,72.0,63.0,-100.00,WSW,252,5.0,10.0,74,0.00,,,0.00,519.000000,,2013-08-31 16:52:00,
2013-08-31 12:01:00,76.0,63.0,-100.00,WSW,253,4.0,9.0,65,0.00,,,0.00,782.000000,,2013-08-31 17:01:00,
2013-08-31 12:23:00,76.0,63.0,-100.00,WSW,253,4.0,9.0,65,0.00,,,0.00,782.000000,,2013-08-31 17:23:00,
2013-08-31 12:34:00,76.0,63.0,-100.00,WSW,253,4.0,9.0,65,0.00,,,0.00,782.000000,,2013-08-31 17:34:00,
2013-08-31 12:43:00,76.0,63.0,-100.00,WSW,253,4.0,9.0,65,0.00,,,0.00,782.000000,,2013-08-31 17:43:00,
2013-08-31 12:53:00,76.0,63.0,-100.00,WSW,253,4.0,9.0,65,0.00,,,0.00,782.000000,,2013-08-31 17:53:00,
2013-08-31 13:01:00,78.0,62.0,-100.00,WNW,298,2.0,7.0,59,0.00,,,0.00,642.000000,,2013-08-31 18:01:00,
2013-08-31 13:42:00,78.0,62.0,-100.00,WNW,298,2.0,7.0,59,0.00,,,0.00,642.000000,,2013-08-31 18:42:00,
2013-08-31 13:52:00,78.0,62.0,-100.00,WNW,298,2.0,7.0,59,0.00,,,0.00,642.000000,,2013-08-31 18:52:00,
2013-08-31 14:01:00,81.0,62.0,-100.00,SSW,207,6.0,10.0,53,0.00,,,0.00,760.000000,,2013-08-31 19:01:00,
2013-08-31 14:42:00,81.0,62.0,-100.00,SSW,207,6.0,10.0,53,0.00,,,0.00,760.000000,,2013-08-31 19:42:00,
2013-08-31 14:52:00,81.0,62.0,-100.00,SSW,207,6.0,10.0,53,0.00,,,0.00,760.000000,,2013-08-31 19:52:00,
2013-08-31 15:01:00,82.0,62.0,-100.00,SW,235,5.0,11.0,51,0.00,,,0.00,840.000000,,2013-08-31 20:01:00,
2013-08-31 15:43:00,82.0,62.0,-100.00,SW,235,5.0,11.0,51,0.00,,,0.00,840.000000,,2013-08-31 20:43:00,
2013-08-31 15:53:00,82.0,62.0,-100.00,SW,235,5.0,11.0,51,0.00,,,0.00,840.000000,,2013-08-31 20:53:00,
2013-08-31 16:01:00,81.0,59.0,-100.00,WSW,237,7.0,12.0,48,0.00,,,0.00,692.000000,,2013-08-31 21:01:00,
2013-08-31 16:44:00,81.0,59.0,-100.00,WSW,237,7.0,12.0,48,0.00,,,0.00,692.000000,,2013-08-31 21:44:00,
2013-08-31 16:54:00,81.0,59.0,-100.00,WSW,237,7.0,12.0,48,0.00,,,0.00,692.000000,,2013-08-31 21:54:00,
2013-08-31 17:01:00,82.0,61.0,-100.00,SW,226,5.0,11.0,50,0.00,,,0.00,534.000000,,2013-08-31 22:01:00,
2013-08-31 17:44:00,82.0,61.0,-100.00,SW,226,5.0,11.0,50,0.00,,,0.00,534.000000,,2013-08-31 22:44:00,
2013-08-31 17:53:00,82.0,61.0,-100.00,SW,226,5.0,11.0,50,0.00,,,0.00,534.000000,,2013-08-31 22:53:00,
2013-08-31 18:01:00,81.0,63.0,-100.00,SSW,213,5.0,11.0,54,0.00,,,0.00,352.000000,,2013-08-31 23:01:00,
2013-08-31 18:42:00,81.0,63.0,-100.00,SSW,213,5.0,11.0,54,0.00,,,0.00,352.000000,,2013-08-31 23:42:00,
2013-08-31 18:52:00,81.0,63.0,-100.00,SSW,213,5.0,11.0,54,0.00,,,0.00,352.000000,,2013-08-31 23:52:00,
2013-08-31 19:01:00,73.0,67.0,-100.00,SW,219,0.0,8.0,82,0.00,,,0.00,136.000000,,2013-09-01 00:01:00,
2013-08-31 19:22:00,73.0,67.0,-100.00,SW,219,0.0,8.0,82,0.00,,,0.00,136.000000,,2013-09-01 00:22:00,
2013-08-31 19:32:00,73.0,67.0,-100.00,SW,219,0.0,8.0,82,0.00,,,0.00,136.000000,,2013-09-01 00:32:00,
2013-08-31 19:42:00,73.0,67.0,-100.00,SW,219,0.0,8.0,82,0.00,,,0.00,136.000000,,2013-09-01 00:42:00,
2013-08-31 19:52:00,73.0,67.0,-100.00,SW,219,0.0,8.0,82,0.00,,,0.00,136.000000,,2013-09-01 00:52:00,
2013-08-31 20:01:00,65.0,64.0,-100.00,SSW,202,0.0,2.0,96,0.00,,,0.00,11.000000,,2013-09-01 01:01:00,
2013-08-31 20:42:00,65.0,64.0,-100.00,SSW,202,0.0,2.0,96,0.00,,,0.00,11.000000,,2013-09-01 01:42:00,
2013-08-31 20:52:00,65.0,64.0,-100.00,SSW,202,0.0,2.0,96,0.00,,,0.00,11.000000,,2013-09-01 01:52:00,
2013-08-31 21:01:00,63.0,62.0,-100.00,NW,323,0.0,0.0,97,0.00,,,0.00,0.000000,,2013-09-01 02:01:00,
2013-08-31 21:23:00,63.0,62.0,-100.00,NW,323,0.0,0.0,97,0.00,,,0.00,0.000000,,2013-09-01 02:23:00,
2013-08-31 21:32:00,63.0,62.0,-100.00,NW,323,0.0,0.0,97,0.00,,,0.00,0.000000,,2013-09-01 02:32:00,
2013-08-31 21:43:00,63.0,62.0,-100.00,NW,323,0.0,0.0,97,0.00,,,0.00,0.000000,,2013-09-01 02:43:00,
2013-08-31 21:53:00,63.0,62.0,-100.00,NW,323,0.0,0.0,97,0.00,,,0.00,0.000000,,2013-09-01 02:53:00,
2013-08-31 22:01:00,-999.0,-99.9,-100.00,SW,224,1.0,3.0,-999,-99.99,,,-99.99,0.000000,,2013-09-01 03:01:00,
2013-08-31 22:23:00,63.0,62.0,-100.00,SW,224,1.0,3.0,97,0.00,,,0.00,0.000000,,2013-09-01 03:23:00,
2013-08-31 22:35:00,63.0,62.0,-100.00,SW,224,1.0,3.0,97,0.00,,,0.00,0.000000,,2013-09-01 03:35:00,
2013-08-31 22:44:00,63.0,62.0,-100.00,SW,224,1.0,3.0,97,0.00,,,0.00,0.000000,,2013-09-01 03:44:00,
2013-08-31 22:54:00,63.0,62.0,-100.00,SW,224,1.0,3.0,97,0.00,,,0.00,0.000000,,2013-09-01 03:54:00,
2013-08-31 23:01:00,67.0,64.0,-100.00,SW,221,3.0,13.0,89,0.03,,,0.03,0.000000,,2013-09-01 04:01:00,
2013-08-31 23:25:00,67.0,64.0,-100.00,SW,221,3.0,13.0,89,0.03,,,0.03,0.000000,,2013-09-01 04:25:00,
2013-08-31 23:34:00,67.0,64.0,-100.00,SW,221,3.0,13.0,89,0.03,,,0.03,0.000000,,2013-09-01 04:34:00,
2013-08-31 23:43:00,67.0,64.0,-100.00,SW,221,3.0,13.0,89,0.03,,,0.03,0.000000,,2013-09-01 04:43:00,
2013-08-31 23:54:00,67.0,64.0,-100.00,SW,221,3.0,13.0,89,0.03,,,0.03,0.000000,,2013-09-01 04:54:00,